Погода в Красном Октябре

Россия / Омская область     54°08′02″N   75°00′41″E
темп.,
°C
ветер,
м/с
пор.,
м/с
влажн.,
%
обл.,
%
осадки,
мм/ч
давл.,
гПа
погр.,
м
13 апреля, вт
вт1300:00+1сз49100100 1.3 1032220
03:00+1с511100100 0.1 1033278
06:00+1ссз38100100 0.1 1035207
09:00+1ссз4899100 0.0 1038320
12:00+1сз36100100 0.0 1039205
15:00+1сз45100100 0.0 1039189
18:00+2з2410077 0.0 103966
21:000зсз35100100 0.0 1039109
14 апреля, ср
ср1400:000з37955 0.0 103899
03:000з38955 0.0 1037116
06:00−1зюз38935 0.0 1037116
09:00+1зюз41093100 0.0 1036230
12:00+4зюз61195100 0.0 1034314
15:00+8зюз6127670 0.0 1031458
18:00+8з51076100 0.0 1029178
21:00+4з46825 0.0 102967
15 апреля, чт
чт1500:00+3з33897 0.0 102836
03:00+4з3392100 0.0 102831
06:00+4зюз3393100 0.0 102740
09:00+5зюз3594100 0.1 102777
12:00+10зюз47850 0.1 1025334
15:00+15з577024 0.0 1023974
18:00+15з36675 0.0 1022231
21:00+11зюз447921 0.0 102139
16 апреля, пт
пт1600:00+9зюз348622 0.0 102046
03:00+8зюз34905 0.0 101946
06:00+7зюз35925 0.0 101859
09:00+11зюз46835 0.0 1017221
12:00+16зюз56625 0.0 1015873
15:00+18зюз56485 0.0 10131514
18:00+17зюз35474 0.0 1011627
21:00+13ююз335981 0.0 101016
17 апреля, сб
сб1700:00+11зюз2265100 0.0 100810
03:00+7св599689 0.0 1007216
06:00+5св6890100 0.0 1007387
09:00+4св7888100 0.0 1008514
12:00+3св6782100 0.0 1008564
15:00+2св6680100 0.0 1010633
18:00+1св5683100 0.0 1011610
21:000всв6885100 0.1 1010563